WAT3284 KMYR-KMSY

Flight info

Callsign WAT3284
Flight time 1h 45m
Altitude 36000
Route RAYVO LLNDO OCNNR SJI MNSTR1
Aircraft B738/M-SDE2E3FGHIRWXY/LB1

Departure

Time 2026-04-23 09:41
Airport Myrtle Beach International Airport (KMYR)

Arrival

Time 2026-04-23 11:26
Airport Louis Armstrong New Orleans International Airport (KMSY)
Time Latitude Longitude Altitude Speed Heading
2026-04-23 09:08 33.68068 -78.92463 31 ft 0 kts 169°
2026-04-23 09:23 33.68071 -78.92463 31 ft 2 kts 169°
2026-04-23 09:23 33.68087 -78.92467 30 ft 2 kts 169°
2026-04-23 09:23 33.68104 -78.92470 30 ft 3 kts 189°
2026-04-23 09:23 33.68119 -78.92463 30 ft 3 kts 239°
2026-04-23 09:24 33.68125 -78.92442 28 ft 2 kts 259°
2026-04-23 09:24 33.68127 -78.92432 28 ft 1 kts 260°
2026-04-23 09:29 33.68125 -78.92446 31 ft 5 kts 260°
2026-04-23 09:30 33.68116 -78.92507 31 ft 9 kts 262°
2026-04-23 09:30 33.68137 -78.92578 31 ft 10 kts 329°
2026-04-23 09:30 33.68210 -78.92569 31 ft 12 kts 21°
2026-04-23 09:30 33.68294 -78.92564 31 ft 13 kts 350°
2026-04-23 09:31 33.68382 -78.92585 31 ft 13 kts 348°
2026-04-23 09:31 33.68471 -78.92607 31 ft 13 kts 348°
2026-04-23 09:31 33.68563 -78.92630 31 ft 14 kts 348°
2026-04-23 09:31 33.68653 -78.92664 31 ft 11 kts 322°
2026-04-23 09:32 33.68668 -78.92758 31 ft 13 kts 261°
2026-04-23 09:32 33.68648 -78.92875 31 ft 16 kts 258°
2026-04-23 09:32 33.68625 -78.93008 31 ft 17 kts 258°
2026-04-23 09:32 33.68600 -78.93148 31 ft 12 kts 258°
2026-04-23 09:33 33.68576 -78.93245 31 ft 12 kts 239°
2026-04-23 09:33 33.68519 -78.93315 30 ft 9 kts 208°
2026-04-23 09:33 33.68449 -78.93317 31 ft 11 kts 168°
2026-04-23 09:33 33.68361 -78.93294 31 ft 14 kts 168°
2026-04-23 09:34 33.68254 -78.93267 31 ft 17 kts 168°
2026-04-23 09:34 33.68130 -78.93235 31 ft 19 kts 168°
2026-04-23 09:34 33.68032 -78.93209 31 ft 7 kts 160°
2026-04-23 09:34 33.68014 -78.93147 31 ft 11 kts 75°
2026-04-23 09:35 33.68045 -78.93051 30 ft 14 kts 66°
2026-04-23 09:35 33.68087 -78.92929 30 ft 18 kts 68°
2026-04-23 09:35 33.68136 -78.92785 31 ft 10 kts 68°
2026-04-23 09:35 33.68176 -78.92707 30 ft 12 kts 30°
2026-04-23 09:36 33.68271 -78.92705 31 ft 15 kts 350°
2026-04-23 09:36 33.68383 -78.92733 31 ft 18 kts 348°
2026-04-23 09:36 33.68511 -78.92767 30 ft 20 kts 347°
2026-04-23 09:36 33.68650 -78.92790 30 ft 20 kts 346°
2026-04-23 09:37 33.68793 -78.92835 32 ft 22 kts 348°
2026-04-23 09:37 33.68912 -78.92865 32 ft 14 kts 349°
2026-04-23 09:37 33.69015 -78.92853 32 ft 16 kts 355°
2026-04-23 09:37 33.69134 -78.92879 32 ft 18 kts 348°
2026-04-23 09:38 33.69242 -78.92905 32 ft 9 kts 346°
2026-04-23 09:38 33.69270 -78.92967 32 ft 9 kts 269°
2026-04-23 09:38 33.69260 -78.93039 31 ft 8 kts 258°
2026-04-23 09:38 33.69260 -78.93041 32 ft 0 kts 258°
2026-04-23 09:39 33.69255 -78.93080 32 ft 8 kts 262°
2026-04-23 09:39 33.69221 -78.93136 32 ft 10 kts 194°
2026-04-23 09:39 33.69187 -78.93134 33 ft 0 kts 169°
2026-04-23 09:40 33.69177 -78.93131 33 ft 11 kts 169°
2026-04-23 09:40 33.68929 -78.93070 34 ft 72 kts 168°
2026-04-23 09:40 33.68184 -78.92886 30 ft 144 kts 168°
2026-04-23 09:41 33.67003 -78.92602 148 ft 196 kts 170°
2026-04-23 09:41 33.65610 -78.92198 781 ft 215 kts 170°
2026-04-23 09:41 33.64073 -78.91694 1118 ft 246 kts 168°
2026-04-23 09:41 33.62372 -78.91105 1754 ft 258 kts 171°
2026-04-23 09:42 33.60603 -78.91116 2278 ft 254 kts 205°
2026-04-23 09:42 33.59258 -78.92358 2906 ft 246 kts 240°
2026-04-23 09:42 33.58742 -78.94271 3384 ft 241 kts 264°
2026-04-23 09:42 33.58641 -78.96293 3883 ft 246 kts 274°
2026-04-23 09:43 33.58743 -78.98351 4392 ft 250 kts 277°
2026-04-23 09:43 33.58885 -79.00391 4902 ft 254 kts 277°
2026-04-23 09:43 33.59036 -79.02514 5393 ft 257 kts 277°
2026-04-23 09:43 33.59183 -79.04659 5879 ft 259 kts 277°
2026-04-23 09:44 33.59325 -79.06825 6373 ft 262 kts 277°
2026-04-23 09:44 33.59464 -79.09037 6874 ft 271 kts 276°
2026-04-23 09:44 33.59602 -79.11311 7357 ft 275 kts 276°
2026-04-23 09:44 33.59737 -79.13605 7849 ft 275 kts 276°
2026-04-23 09:45 33.59870 -79.15899 8347 ft 276 kts 276°
2026-04-23 09:45 33.60002 -79.18219 8868 ft 283 kts 276°
2026-04-23 09:45 33.60137 -79.20601 9395 ft 289 kts 276°
2026-04-23 09:45 33.60272 -79.23010 9916 ft 290 kts 275°
2026-04-23 09:46 33.60406 -79.25428 10403 ft 291 kts 275°
2026-04-23 09:46 33.60541 -79.27889 10698 ft 306 kts 275°
2026-04-23 09:46 33.60687 -79.30528 10885 ft 328 kts 275°
2026-04-23 09:46 33.60841 -79.33334 11189 ft 344 kts 275°
2026-04-23 09:47 33.60997 -79.36215 11855 ft 348 kts 274°
2026-04-23 09:47 33.61152 -79.39111 12693 ft 347 kts 274°
2026-04-23 09:47 33.61307 -79.42016 13384 ft 351 kts 273°
2026-04-23 09:47 33.61463 -79.44952 14059 ft 355 kts 273°
2026-04-23 09:48 33.61621 -79.47928 14617 ft 360 kts 273°
2026-04-23 09:48 33.61780 -79.50936 15255 ft 363 kts 273°
2026-04-23 09:48 33.61939 -79.53969 15881 ft 365 kts 274°
2026-04-23 09:48 33.62100 -79.57024 16479 ft 369 kts 274°
2026-04-23 09:49 33.62261 -79.60111 17063 ft 373 kts 274°
2026-04-23 09:49 33.62423 -79.63226 17635 ft 377 kts 274°
2026-04-23 09:49 33.62586 -79.66382 18213 ft 380 kts 274°
2026-04-23 09:49 33.62748 -79.69522 18735 ft 384 kts 274°
2026-04-23 09:50 33.62914 -79.72773 19240 ft 387 kts 274°
2026-04-23 09:50 33.63079 -79.76008 19766 ft 390 kts 274°
2026-04-23 09:50 33.63244 -79.79267 20249 ft 393 kts 274°
2026-04-23 09:50 33.63408 -79.82514 20724 ft 397 kts 274°
2026-04-23 09:51 33.63574 -79.85829 21186 ft 400 kts 274°
2026-04-23 09:51 33.63741 -79.89175 21659 ft 403 kts 274°
2026-04-23 09:51 33.63908 -79.92546 22133 ft 406 kts 274°
2026-04-23 09:51 33.64076 -79.95941 22592 ft 409 kts 274°
2026-04-23 09:52 33.64244 -79.99364 23040 ft 412 kts 274°
2026-04-23 09:52 33.64406 -80.02686 23457 ft 415 kts 274°
2026-04-23 09:52 33.64511 -80.06158 23861 ft 419 kts 269°
2026-04-23 09:52 33.64357 -80.08476 24094 ft 422 kts 262°
2026-04-23 09:53 33.63782 -80.11939 24490 ft 424 kts 259°
2026-04-23 09:53 33.63141 -80.15398 24862 ft 426 kts 259°
2026-04-23 09:53 33.62485 -80.18878 25221 ft 429 kts 259°
2026-04-23 09:53 33.61829 -80.22377 25583 ft 431 kts 259°
2026-04-23 09:54 33.61176 -80.25893 25939 ft 433 kts 259°
2026-04-23 09:54 33.60527 -80.29428 26286 ft 435 kts 259°
2026-04-23 09:54 33.59879 -80.32983 26624 ft 437 kts 259°
2026-04-23 09:54 33.59231 -80.36556 26954 ft 440 kts 259°
2026-04-23 09:55 33.58581 -80.40145 27275 ft 442 kts 259°
2026-04-23 09:55 33.57926 -80.43752 27586 ft 444 kts 260°
2026-04-23 09:55 33.57267 -80.47384 27857 ft 447 kts 260°
2026-04-23 09:55 33.56602 -80.51040 28152 ft 450 kts 260°
2026-04-23 09:56 33.55933 -80.54709 28462 ft 451 kts 259°
2026-04-23 09:56 33.55261 -80.58388 28783 ft 453 kts 259°
2026-04-23 09:56 33.54584 -80.62085 29082 ft 455 kts 259°
2026-04-23 09:56 33.53904 -80.65796 29372 ft 457 kts 259°
2026-04-23 09:57 33.53219 -80.69525 29651 ft 459 kts 260°
2026-04-23 09:57 33.52530 -80.73269 29921 ft 461 kts 260°
2026-04-23 09:57 33.51837 -80.77029 30239 ft 462 kts 260°
2026-04-23 09:57 33.51144 -80.80777 30607 ft 460 kts 260°
2026-04-23 09:58 33.50453 -80.84505 31007 ft 457 kts 260°
2026-04-23 09:58 33.49765 -80.88215 31384 ft 455 kts 260°
2026-04-23 09:58 33.49079 -80.91909 31695 ft 454 kts 259°
2026-04-23 09:58 33.48392 -80.95602 32022 ft 453 kts 259°
2026-04-23 09:59 33.47706 -80.99283 32375 ft 452 kts 259°
2026-04-23 09:59 33.47050 -81.02798 32689 ft 450 kts 259°
2026-04-23 09:59 33.46366 -81.06454 32978 ft 450 kts 259°
2026-04-23 09:59 33.45682 -81.10111 33283 ft 449 kts 259°
2026-04-23 10:00 33.44999 -81.13749 33601 ft 448 kts 259°
2026-04-23 10:00 33.44317 -81.17377 33911 ft 446 kts 259°
2026-04-23 10:00 33.43635 -81.21001 34197 ft 445 kts 259°
2026-04-23 10:00 33.42954 -81.24612 34452 ft 445 kts 259°
2026-04-23 10:01 33.42272 -81.28223 34701 ft 444 kts 259°
2026-04-23 10:01 33.41591 -81.31824 34944 ft 443 kts 259°
2026-04-23 10:01 33.40910 -81.35414 35188 ft 442 kts 259°
2026-04-23 10:01 33.40230 -81.38997 35398 ft 442 kts 259°
2026-04-23 10:02 33.39549 -81.42582 35616 ft 441 kts 259°
2026-04-23 10:02 33.38867 -81.46160 35837 ft 441 kts 259°
2026-04-23 10:02 33.38185 -81.49733 36033 ft 440 kts 259°
2026-04-23 10:02 33.37503 -81.53307 36161 ft 441 kts 259°
2026-04-23 10:03 33.36815 -81.56903 36143 ft 444 kts 259°
2026-04-23 10:03 33.35449 -81.64018 36143 ft 440 kts 259°
2026-04-23 10:04 33.34080 -81.71125 36138 ft 437 kts 259°
2026-04-23 10:04 33.32716 -81.78186 36147 ft 435 kts 259°
2026-04-23 10:05 33.31351 -81.85230 36152 ft 434 kts 259°
2026-04-23 10:05 33.29983 -81.92267 36151 ft 435 kts 259°
2026-04-23 10:06 33.28607 -81.99327 36154 ft 437 kts 259°
2026-04-23 10:06 33.27248 -82.06276 36155 ft 439 kts 259°
2026-04-23 10:07 33.25848 -82.13404 36151 ft 442 kts 259°
2026-04-23 10:07 33.24440 -82.20558 36149 ft 443 kts 259°
2026-04-23 10:08 33.23022 -82.27736 36147 ft 445 kts 259°
2026-04-23 10:08 33.21596 -82.34929 36146 ft 445 kts 259°
2026-04-23 10:09 33.19449 -82.45718 36142 ft 445 kts 259°
2026-04-23 10:09 33.18014 -82.52899 36149 ft 444 kts 259°
2026-04-23 10:10 33.16577 -82.60070 36150 ft 444 kts 259°
2026-04-23 10:10 33.15138 -82.67230 36148 ft 443 kts 259°
2026-04-23 10:11 33.13706 -82.74335 36145 ft 443 kts 259°
2026-04-23 10:11 33.11837 -82.81327 36135 ft 446 kts 246°
2026-04-23 10:12 33.08516 -82.87600 36147 ft 449 kts 238°
2026-04-23 10:12 33.04961 -82.93720 36147 ft 449 kts 238°
2026-04-23 10:13 33.01421 -82.99855 36147 ft 449 kts 238°
2026-04-23 10:13 32.97966 -83.05899 36147 ft 450 kts 238°
2026-04-23 10:14 32.94449 -83.12073 36148 ft 450 kts 238°
2026-04-23 10:14 32.90929 -83.18246 36134 ft 451 kts 238°
2026-04-23 10:15 32.87403 -83.24417 36154 ft 451 kts 238°
2026-04-23 10:15 32.83867 -83.30594 36149 ft 452 kts 238°
2026-04-23 10:16 32.80322 -83.36778 36152 ft 453 kts 238°
2026-04-23 10:16 32.76768 -83.42964 36153 ft 453 kts 238°
2026-04-23 10:17 32.73209 -83.49150 36162 ft 454 kts 238°
2026-04-23 10:17 32.69645 -83.55334 36141 ft 454 kts 238°
2026-04-23 10:18 32.66077 -83.61515 36151 ft 454 kts 238°
2026-04-23 10:18 32.62506 -83.67691 36161 ft 454 kts 238°
2026-04-23 10:19 32.58934 -83.73859 36186 ft 454 kts 238°
2026-04-23 10:19 32.55360 -83.80020 36183 ft 454 kts 238°
2026-04-23 10:20 32.51783 -83.86176 36185 ft 453 kts 238°
2026-04-23 10:20 32.48204 -83.92327 36178 ft 453 kts 238°
2026-04-23 10:21 32.44623 -83.98470 36163 ft 453 kts 238°
2026-04-23 10:21 32.41115 -84.04478 36169 ft 453 kts 238°
2026-04-23 10:22 32.37524 -84.10618 36156 ft 454 kts 238°
2026-04-23 10:22 32.33930 -84.16755 36145 ft 454 kts 238°
2026-04-23 10:23 32.30327 -84.22895 36144 ft 455 kts 238°
2026-04-23 10:23 32.26742 -84.28995 36133 ft 455 kts 238°
2026-04-23 10:24 32.23122 -84.35145 36143 ft 456 kts 238°
2026-04-23 10:24 32.19498 -84.41292 36153 ft 456 kts 238°
2026-04-23 10:25 32.15869 -84.47437 36159 ft 457 kts 238°
2026-04-23 10:25 32.12231 -84.53588 36157 ft 457 kts 238°
2026-04-23 10:26 32.08590 -84.59735 36157 ft 457 kts 238°
2026-04-23 10:26 32.04946 -84.65875 36158 ft 457 kts 238°
2026-04-23 10:27 32.01297 -84.72014 36161 ft 457 kts 238°
2026-04-23 10:27 31.97653 -84.78136 36163 ft 457 kts 238°
2026-04-23 10:28 31.94001 -84.84261 36170 ft 456 kts 237°
2026-04-23 10:28 31.90350 -84.90376 36169 ft 456 kts 237°
2026-04-23 10:29 31.86698 -84.96480 36171 ft 456 kts 237°
2026-04-23 10:29 31.83120 -85.02454 36170 ft 455 kts 237°
2026-04-23 10:30 31.79469 -85.08539 36168 ft 455 kts 237°
2026-04-23 10:30 31.75821 -85.14609 36170 ft 455 kts 237°
2026-04-23 10:31 31.72170 -85.20676 36166 ft 454 kts 237°
2026-04-23 10:31 31.68521 -85.26730 36167 ft 454 kts 237°
2026-04-23 10:32 31.64864 -85.32787 36148 ft 454 kts 237°
2026-04-23 10:32 31.61211 -85.38830 36156 ft 454 kts 237°
2026-04-23 10:33 31.57769 -85.45018 36138 ft 451 kts 246°
2026-04-23 10:33 31.55656 -85.51899 36136 ft 448 kts 254°
2026-04-23 10:34 31.53785 -85.58824 36126 ft 449 kts 254°
2026-04-23 10:34 31.51873 -85.65793 36129 ft 449 kts 254°
2026-04-23 10:35 31.49929 -85.72753 36126 ft 450 kts 254°
2026-04-23 10:35 31.47966 -85.79724 36131 ft 451 kts 253°
2026-04-23 10:36 31.45996 -85.86695 36144 ft 451 kts 253°
2026-04-23 10:36 31.44021 -85.93670 36146 ft 451 kts 253°
2026-04-23 10:37 31.42083 -86.00502 36145 ft 451 kts 253°
2026-04-23 10:37 31.40101 -86.07473 36145 ft 451 kts 253°
2026-04-23 10:38 31.38116 -86.14440 36140 ft 451 kts 253°
2026-04-23 10:38 31.36126 -86.21406 36134 ft 451 kts 253°
2026-04-23 10:39 31.34136 -86.28357 36132 ft 451 kts 253°
2026-04-23 10:39 31.32139 -86.35316 36131 ft 451 kts 253°
2026-04-23 10:40 31.30138 -86.42272 36133 ft 452 kts 253°
2026-04-23 10:40 31.28472 -86.48056 36130 ft 452 kts 253°
2026-04-23 10:41 31.26460 -86.55018 36127 ft 452 kts 253°
2026-04-23 10:41 31.24442 -86.61991 36122 ft 453 kts 252°
2026-04-23 10:42 31.22421 -86.68957 36123 ft 453 kts 252°
2026-04-23 10:42 31.20393 -86.75931 36123 ft 454 kts 252°
2026-04-23 10:43 31.18359 -86.82908 36125 ft 454 kts 252°
2026-04-23 10:43 31.16321 -86.89885 36126 ft 454 kts 252°
2026-04-23 10:44 31.14280 -86.96854 36119 ft 454 kts 252°
2026-04-23 10:44 31.12271 -87.03700 36125 ft 454 kts 252°
2026-04-23 10:45 31.10221 -87.10670 36125 ft 454 kts 252°
2026-04-23 10:45 31.08168 -87.17635 36125 ft 454 kts 252°
2026-04-23 10:46 31.06111 -87.24595 36124 ft 454 kts 252°
2026-04-23 10:46 31.04051 -87.31552 36123 ft 454 kts 252°
2026-04-23 10:47 31.01987 -87.38508 36122 ft 454 kts 251°
2026-04-23 10:47 30.99922 -87.45450 36126 ft 454 kts 251°
2026-04-23 10:48 30.97851 -87.52400 36128 ft 454 kts 251°
2026-04-23 10:48 30.95775 -87.59346 36125 ft 454 kts 251°
2026-04-23 10:49 30.93695 -87.66293 36126 ft 454 kts 251°
2026-04-23 10:49 30.91613 -87.73232 36123 ft 454 kts 251°
2026-04-23 10:50 30.89528 -87.80163 36126 ft 453 kts 251°
2026-04-23 10:50 30.88486 -87.83623 35813 ft 454 kts 251°
2026-04-23 10:50 30.87446 -87.87069 35494 ft 447 kts 251°
2026-04-23 10:51 30.86419 -87.90470 35089 ft 444 kts 251°
2026-04-23 10:51 30.85399 -87.93845 34711 ft 441 kts 251°
2026-04-23 10:51 30.84384 -87.97200 34324 ft 438 kts 251°
2026-04-23 10:51 30.83418 -88.00391 33925 ft 436 kts 251°
2026-04-23 10:52 30.82411 -88.03710 33488 ft 433 kts 251°
2026-04-23 10:52 30.81425 -88.06960 33086 ft 430 kts 251°
2026-04-23 10:52 30.80432 -88.10229 32690 ft 427 kts 251°
2026-04-23 10:52 30.79445 -88.13475 32298 ft 425 kts 251°
2026-04-23 10:53 30.78461 -88.16705 31916 ft 422 kts 251°
2026-04-23 10:53 30.77485 -88.19909 31542 ft 419 kts 251°
2026-04-23 10:53 30.76514 -88.23092 31169 ft 417 kts 251°
2026-04-23 10:53 30.75547 -88.26261 30800 ft 414 kts 251°
2026-04-23 10:54 30.74585 -88.29412 30434 ft 412 kts 251°
2026-04-23 10:54 30.73627 -88.32542 30045 ft 410 kts 251°
2026-04-23 10:54 30.72672 -88.35656 29618 ft 408 kts 250°
2026-04-23 10:54 30.71559 -88.38678 29197 ft 405 kts 244°
2026-04-23 10:55 30.70273 -88.41573 28807 ft 402 kts 242°
2026-04-23 10:55 30.68950 -88.44419 28430 ft 399 kts 242°
2026-04-23 10:55 30.67641 -88.47248 28048 ft 395 kts 243°
2026-04-23 10:55 30.66366 -88.50058 27670 ft 392 kts 243°
2026-04-23 10:56 30.65114 -88.52862 27301 ft 389 kts 244°
2026-04-23 10:56 30.63883 -88.55643 26944 ft 386 kts 244°
2026-04-23 10:56 30.62663 -88.58405 26581 ft 383 kts 244°
2026-04-23 10:56 30.61449 -88.61148 26231 ft 380 kts 244°
2026-04-23 10:57 30.60246 -88.63860 25993 ft 374 kts 244°
2026-04-23 10:57 30.59057 -88.66536 25651 ft 372 kts 244°
2026-04-23 10:57 30.57875 -88.69192 25314 ft 369 kts 244°
2026-04-23 10:57 30.56702 -88.71828 24979 ft 367 kts 244°
2026-04-23 10:58 30.55535 -88.74450 24634 ft 365 kts 244°
2026-04-23 10:58 30.54373 -88.77059 24268 ft 363 kts 244°
2026-04-23 10:58 30.53215 -88.79657 23920 ft 361 kts 244°
2026-04-23 10:58 30.52064 -88.82238 23543 ft 360 kts 245°
2026-04-23 10:59 30.50915 -88.84815 23148 ft 358 kts 245°
2026-04-23 10:59 30.49774 -88.87370 22768 ft 356 kts 244°
2026-04-23 10:59 30.48638 -88.89912 22407 ft 353 kts 244°
2026-04-23 10:59 30.47526 -88.92399 22060 ft 351 kts 244°
2026-04-23 11:00 30.46408 -88.94900 21715 ft 348 kts 244°
2026-04-23 11:00 30.45297 -88.97382 21373 ft 346 kts 244°
2026-04-23 11:00 30.44194 -88.99845 21048 ft 343 kts 244°
2026-04-23 11:00 30.43177 -89.02117 20734 ft 341 kts 244°
2026-04-23 11:01 30.42085 -89.04551 20407 ft 339 kts 244°
2026-04-23 11:01 30.40999 -89.06969 20094 ft 338 kts 244°
2026-04-23 11:01 30.39977 -89.09406 19770 ft 335 kts 248°
2026-04-23 11:01 30.39064 -89.11877 19462 ft 333 kts 249°
2026-04-23 11:02 30.38179 -89.14348 19143 ft 332 kts 249°
2026-04-23 11:02 30.37293 -89.16813 18822 ft 331 kts 249°
2026-04-23 11:02 30.36403 -89.19262 18499 ft 330 kts 248°
2026-04-23 11:02 30.35509 -89.21703 18119 ft 329 kts 248°
2026-04-23 11:03 30.34613 -89.24136 17769 ft 328 kts 248°
2026-04-23 11:03 30.33715 -89.26564 17352 ft 329 kts 248°
2026-04-23 11:03 30.32818 -89.28988 17006 ft 327 kts 248°
2026-04-23 11:03 30.31925 -89.31399 16661 ft 325 kts 248°
2026-04-23 11:04 30.31035 -89.33799 16334 ft 324 kts 248°
2026-04-23 11:04 30.30149 -89.36191 16006 ft 322 kts 248°
2026-04-23 11:04 30.29268 -89.38567 15679 ft 321 kts 248°
2026-04-23 11:04 30.28390 -89.40930 15358 ft 319 kts 248°
2026-04-23 11:05 30.27516 -89.43284 15038 ft 317 kts 248°
2026-04-23 11:05 30.26647 -89.45620 14727 ft 316 kts 248°
2026-04-23 11:05 30.25781 -89.47946 14418 ft 314 kts 248°
2026-04-23 11:05 30.24916 -89.50268 14102 ft 313 kts 248°
2026-04-23 11:06 30.23201 -89.54874 13421 ft 311 kts 248°
2026-04-23 11:06 30.22348 -89.57161 13093 ft 309 kts 248°
2026-04-23 11:06 30.21509 -89.59407 12778 ft 308 kts 247°
2026-04-23 11:07 30.20652 -89.61703 12449 ft 307 kts 247°
2026-04-23 11:07 30.19809 -89.63959 12134 ft 305 kts 247°
2026-04-23 11:07 30.18969 -89.66207 11818 ft 303 kts 247°
2026-04-23 11:07 30.18134 -89.68439 11508 ft 302 kts 247°
2026-04-23 11:08 30.17313 -89.70632 11190 ft 301 kts 247°
2026-04-23 11:08 30.16489 -89.72830 11035 ft 295 kts 247°
2026-04-23 11:08 30.15684 -89.74985 10959 ft 291 kts 247°
2026-04-23 11:08 30.14892 -89.77126 10883 ft 290 kts 247°
2026-04-23 11:09 30.14098 -89.79278 10820 ft 292 kts 247°
2026-04-23 11:09 30.13301 -89.81434 10753 ft 292 kts 247°
2026-04-23 11:09 30.12502 -89.83588 10688 ft 292 kts 247°
2026-04-23 11:09 30.11700 -89.85741 10622 ft 291 kts 247°
2026-04-23 11:10 30.10899 -89.87889 10561 ft 291 kts 247°
2026-04-23 11:10 30.10098 -89.90037 10499 ft 292 kts 247°
2026-04-23 11:10 30.09287 -89.92184 10433 ft 292 kts 246°
2026-04-23 11:10 30.08472 -89.94330 10373 ft 292 kts 246°
2026-04-23 11:11 30.07654 -89.96478 10309 ft 292 kts 246°
2026-04-23 11:11 30.06840 -89.98619 10248 ft 292 kts 246°
2026-04-23 11:11 30.06047 -90.00708 10199 ft 292 kts 246°
2026-04-23 11:11 30.05242 -90.02849 10133 ft 289 kts 246°
2026-04-23 11:12 30.04454 -90.04959 10001 ft 283 kts 246°
2026-04-23 11:12 30.03667 -90.07034 9724 ft 281 kts 246°
2026-04-23 11:12 30.02874 -90.09083 9462 ft 279 kts 246°
2026-04-23 11:12 30.02080 -90.11107 9209 ft 276 kts 245°
2026-04-23 11:13 30.01277 -90.13116 8951 ft 274 kts 244°
2026-04-23 11:13 30.00460 -90.15102 8686 ft 272 kts 244°
2026-04-23 11:13 29.99653 -90.17061 8433 ft 271 kts 244°
2026-04-23 11:13 29.98847 -90.19023 8102 ft 272 kts 243°
2026-04-23 11:14 29.98007 -90.20999 7660 ft 275 kts 242°
2026-04-23 11:14 29.97127 -90.22951 7224 ft 274 kts 242°
2026-04-23 11:14 29.96249 -90.24895 6798 ft 273 kts 242°
2026-04-23 11:14 29.95419 -90.26810 6398 ft 267 kts 241°
2026-04-23 11:15 29.94544 -90.28686 5944 ft 258 kts 240°
2026-04-23 11:15 29.93702 -90.30447 5511 ft 250 kts 239°
2026-04-23 11:15 29.92838 -90.32192 5054 ft 244 kts 238°
2026-04-23 11:15 29.91986 -90.33820 4741 ft 238 kts 236°
2026-04-23 11:16 29.91104 -90.35426 4435 ft 236 kts 234°
2026-04-23 11:16 29.90216 -90.37048 4130 ft 236 kts 237°
2026-04-23 11:16 29.89489 -90.38717 4026 ft 239 kts 248°
2026-04-23 11:16 29.89038 -90.40559 3976 ft 239 kts 256°
2026-04-23 11:17 29.88745 -90.42442 3996 ft 240 kts 257°
2026-04-23 11:17 29.88489 -90.44337 3997 ft 240 kts 263°
2026-04-23 11:17 29.88629 -90.46267 3999 ft 242 kts 277°
2026-04-23 11:17 29.88883 -90.48193 3980 ft 243 kts 276°
2026-04-23 11:18 29.89127 -90.50077 3962 ft 233 kts 276°
2026-04-23 11:18 29.89365 -90.51904 3972 ft 229 kts 276°
2026-04-23 11:18 29.89601 -90.53721 3975 ft 231 kts 276°
2026-04-23 11:18 29.90118 -90.55475 3962 ft 237 kts 307°
2026-04-23 11:19 29.91455 -90.56494 3972 ft 230 kts 349°
2026-04-23 11:19 29.92955 -90.56286 3981 ft 213 kts 29°
2026-04-23 11:19 29.94320 -90.55645 3979 ft 214 kts 17°
2026-04-23 11:19 29.95771 -90.55239 3996 ft 217 kts 16°
2026-04-23 11:20 29.97243 -90.54817 4006 ft 219 kts 16°
2026-04-23 11:20 29.98725 -90.54407 3967 ft 217 kts 15°
2026-04-23 11:20 30.00174 -90.54025 3973 ft 211 kts 15°
2026-04-23 11:20 30.01599 -90.53655 3973 ft 210 kts 15°
2026-04-23 11:21 30.03021 -90.53248 3973 ft 211 kts 24°
2026-04-23 11:21 30.04159 -90.52253 4000 ft 206 kts 57°
2026-04-23 11:21 30.04626 -90.50745 3963 ft 199 kts 96°
2026-04-23 11:21 30.04441 -90.49178 3980 ft 199 kts 100°
2026-04-23 11:22 30.04241 -90.47580 3742 ft 206 kts 102°
2026-04-23 11:22 30.03932 -90.45952 3296 ft 207 kts 106°
2026-04-23 11:22 30.03560 -90.44353 2858 ft 206 kts 108°
2026-04-23 11:22 30.03180 -90.42781 2442 ft 199 kts 108°
2026-04-23 11:23 30.02821 -90.41295 2160 ft 185 kts 109°
2026-04-23 11:23 30.02488 -90.39911 1931 ft 172 kts 109°
2026-04-23 11:23 30.02180 -90.38635 1720 ft 159 kts 110°
2026-04-23 11:23 30.01897 -90.37459 1519 ft 147 kts 109°
2026-04-23 11:24 30.01627 -90.36344 1374 ft 146 kts 108°
2026-04-23 11:24 30.01353 -90.35206 1195 ft 147 kts 107°
2026-04-23 11:24 30.01077 -90.34062 998 ft 149 kts 107°
2026-04-23 11:24 30.00799 -90.32903 821 ft 152 kts 107°
2026-04-23 11:25 30.00538 -90.31733 628 ft 148 kts 104°
2026-04-23 11:25 30.00272 -90.30620 465 ft 143 kts 106°
2026-04-23 11:25 29.99998 -90.29514 312 ft 145 kts 104°
2026-04-23 11:25 29.99724 -90.28404 109 ft 146 kts 106°
2026-04-23 11:26 29.99462 -90.27330 8 ft 129 kts 104°
2026-04-23 11:26 29.99259 -90.26493 14 ft 87 kts 105°
2026-04-23 11:26 29.99137 -90.25993 13 ft 31 kts 105°
2026-04-23 11:26 29.99110 -90.25893 14 ft 13 kts 112°
2026-04-23 11:27 29.99063 -90.25781 13 ft 12 kts 122°
2026-04-23 11:27 29.99009 -90.25704 15 ft 12 kts 142°
2026-04-23 11:27 29.98969 -90.25692 16 ft 0 kts 184°
2026-04-23 11:29 29.98964 -90.25691 16 ft 2 kts 172°
2026-04-23 11:29 29.98945 -90.25679 17 ft 4 kts 137°
2026-04-23 11:29 29.98933 -90.25657 16 ft 6 kts 117°
2026-04-23 11:29 29.98918 -90.25599 15 ft 9 kts 105°
2026-04-23 11:30 29.98895 -90.25509 13 ft 14 kts 106°
2026-04-23 11:30 29.98865 -90.25396 12 ft 9 kts 115°
2026-04-23 11:30 29.98814 -90.25364 14 ft 9 kts 183°
2026-04-23 11:30 29.98761 -90.25396 15 ft 8 kts 216°
2026-04-23 11:31 29.98715 -90.25435 15 ft 8 kts 216°
2026-04-23 11:31 29.98669 -90.25474 15 ft 8 kts 216°
2026-04-23 11:31 29.98636 -90.25521 15 ft 6 kts 264°
2026-04-23 11:31 29.98643 -90.25554 17 ft 3 kts 288°
2026-04-23 11:32 29.98650 -90.25575 16 ft 2 kts 291°
2026-04-23 11:33 29.98657 -90.25581 15 ft 0 kts 304°